Location: Newton_Old_St_Pauls
(35.6750°N, 81.2580°W)
Time: 18:20:08
(UTC-04:00)

Daily predictions for brighter satellites

Satellite Brightness Start Highest point End
(mag) Time Altitude Azimuth Time Altitude Azimuth Time Altitude Azimuth
Cosmos 2154 Rocket 4.0 20:26:03 10° S 20:32:17 77° E 20:38:31 10° N
Resurs 01 Rocket 2.8 20:35:55 10° SE 20:39:34 25° ENE 20:43:12 10° NNE
ERS-2 2.7 20:37:08 10° SE 20:40:32 38° ENE 20:43:58 10° N
Cosmos 1151 Rocket 3.7 20:37:08 10° SSE 20:40:58 33° E 20:44:49 10° NNE
YAOGAN 6 3.6 20:37:53 10° SE 20:40:59 28° ENE 20:44:08 10° NNE
Cosmos 1980 3.7 20:38:46 10° SSW 20:44:25 73° ESE 20:50:05 10° NNE
Cosmos 1666 Rocket 3.6 20:43:03 10° N 20:47:32 89° W 20:51:57 10° S
Thor Agena Rocket 3.6 20:43:56 10° NNE 20:49:10 63° ESE 20:54:24 10° S
Sich 1 3.2 20:45:46 10° N 20:50:01 74° W 20:54:16 10° S
Meteor 2-3 Rocket 3.8 20:45:14 10° N 20:50:49 63° E 20:56:25 10° SSE
Cosmos 962 Rocket 4.4 20:46:04 10° S 20:52:10 77° E 20:58:19 10° N
Cosmos 1455 2.2 20:49:28 10° S 20:53:17 85° W 20:57:10 10° N
Cosmos 1933 Rocket 4.3 20:49:30 10° NNE 20:53:28 33° ENE 20:57:09 11° SE
Cosmos 1844 Rocket 3.5 20:48:25 10° NNW 20:53:54 52° WSW 20:59:20 10° S
SJ-6B 2.9 20:50:04 10° S 20:54:06 84° WSW 20:58:04 10° NNW
Cosmos 1295 Rocket 4.5 20:48:12 10° S 20:54:30 75° E 21:00:48 10° N
Cosmos 2341 Rocket 4.0 20:53:57 10° S 21:00:19 86° E 21:06:40 10° N
Cosmos 2218 Rocket 4.4 20:54:24 10° SSE 21:00:22 45° E 21:06:23 10° NNE
Cosmos 1869 4.0 20:57:10 10° SSE 21:00:46 33° E 21:04:23 10° NNE
Cosmos 2333 Rocket 3.4 20:56:45 10° SW 21:02:11 47° WNW 21:07:39 10° N
Cosmos 2219 Rocket 3.8 20:59:15 10° SW 21:04:30 38° WNW 21:09:45 10° N
Resurs 1-3 3.8 21:01:13 11° SSE 21:05:20 51° ENE 21:09:36 10° N
Cosmos 1892 3.7 21:03:23 10° NNW 21:07:09 50° W 21:10:52 10° S
Cosmos 2366 rocket 4.3 21:01:44 10° SSE 21:07:34 45° E 21:13:31 10° NNE
ATLAS CENTAUR R/B 4.1 21:05:32 10° W 21:08:18 20° NW 21:11:11 10° N
CZ-2D R/B 4.1 21:06:13 10° S 21:09:54 50° W 21:13:38 10° NNW
Cosmos 2237 Rocket 2.5 21:05:20 10° SSW 21:10:56 72° WNW 21:16:34 10° NNE
Cosmos 1939 Rocket 2.7 21:08:36 11° SSE 21:12:15 70° ENE 21:16:09 10° N
SL-8 Rocket 4.0 21:08:34 10° S 21:14:50 72° E 21:21:05 10° N
Genesis I 3.8 21:11:52 10° NW 21:15:52 57° WSW 21:19:13 14° SSE
Cosmos 1633 Rocket 4.0 21:12:34 10° NNW 21:16:45 48° W 21:20:56 10° SSW
USA 186 1.3 21:16:31 22° S 21:17:44 61° W 21:20:01 10° NNW
Cosmos 407 Rocket 4.3 21:17:33 10° N 21:22:10 33° ENE 21:24:14 24° ESE
Cosmos 2278 Rocket 2.2 21:18:51 10° NNW 21:24:33 88° ENE 21:29:00 17° SSE
NOAA 11 4.4 21:21:27 19° SE 21:25:19 55° ENE 21:30:41 10° N
Cosmos 1515 Rocket 4.1 21:23:04 10° SSW 21:27:27 61° W 21:31:53 10° N
Cosmos 1371 Rocket 4.3 21:29:21 10° SSW 21:34:37 70° WNW 21:39:59 10° NNE
OAO 3 Copernicus 4.2 21:30:13 10° WSW 21:35:15 77° S 21:37:49 29° E
Cosmos 405 Rocket 3.4 21:35:30 34° E 21:35:30 34° E 21:38:53 10° NNE
ASTRO E2 3.1 21:32:30 10° WSW 21:36:20 44° S 21:37:01 40° SSE
Cosmos 1825 2.1 21:34:04 10° N 21:37:51 82° W 21:39:48 27° S
USA 81 4.5 21:35:52 10° NNE 21:40:52 42° E 21:42:17 34° ESE
Hubble Space Telescope 3.1 21:38:33 10° SSW 21:39:00 11° S 21:39:00 11° S
H-2A R/B 3.0 21:43:19 27° E 21:43:56 28° ENE 21:48:07 10° NNE
Cosmos 864 Rocket 4.4 21:38:42 10° S 21:44:50 89° E 21:51:00 10° N
CZ-4C R/B 2.4 21:44:58 37° SE 21:45:35 38° ESE 21:50:42 10° NE
OAO 3 Rocket 4.2 21:43:31 10° SW 21:46:41 27° S 21:46:41 27° S
Meteor 2-10 Rocket 3.8 21:46:31 10° S 21:52:14 84° W 21:58:05 10° N
ARGOS 3.5 21:51:35 39° ESE 21:52:52 46° ENE 21:57:58 10° N
Cosmos 2056 Rocket 4.2 21:50:26 10° SSW 21:55:45 57° WNW 22:01:05 10° N
Cosmos 1452 Rocket 3.6 21:55:09 43° SSE 21:56:23 52° ESE 22:01:29 10° NNE
Cosmos 1862 3.7 21:53:25 10° N 21:56:57 47° ENE 21:56:57 47° ENE
Sakura Rocket 4.2 21:54:52 10° WSW 21:58:50 27° SSW 21:58:50 27° SSW
Cosmos 1408 4.3 21:56:49 10° NNW 22:00:07 32° W 22:02:17 17° SW
SL-16 R/B 2.5 21:57:50 10° SSW 22:03:26 66° WNW 22:09:05 10° NNE
Cosmos 1140 Rocket 3.8 22:03:17 10° N 22:08:14 45° ENE 22:08:24 45° ENE
Gblst 52 Del rocket 4.0 22:06:52 10° SW 22:12:32 88° SE 22:18:02 10° NE
ATLAS 2AS CENTAUR R/B 4.2 22:06:44 10° NW 22:13:23 33° WSW 22:18:33 14° SSW
Cosmos 2098 Rocket 4.5 22:11:13 10° SSW 22:15:26 34° W 22:18:54 10° NNW
Resurs 01 Rocket 3.6 22:12:35 11° SSW 22:15:56 25° W 22:19:35 10° NW
Cosmos 1190 Rocket 4.1 22:11:25 10° NNW 22:16:40 70° WSW 22:17:56 50° SSW
Cosmos 2344 3.5 22:10:56 10° SSW 22:18:37 86° ESE 22:26:42 10° NNE
Cosmos 405 4.1 22:16:50 10° NNW 22:19:45 42° WNW 22:19:45 42° WNW
Cosmos 1000 Rocket 4.5 22:17:37 10° N 22:23:45 58° E 22:24:15 56° ESE
Cosmos 1821 Rocket 3.9 22:26:24 61° SE 22:27:18 69° E 22:33:34 10° NNE
Cosmos 1954 Rocket 3.9 22:22:51 10° NNW 22:27:53 72° NE 22:27:53 72° NE
MetOp-A 4.1 22:29:28 65° SSW 22:30:11 77° WSW 22:35:33 10° NNW
Cosmos 1603 3.9 22:31:54 54° ENE 22:31:54 54° ENE 22:36:25 10° NNE
Cosmos 1727 Rocket 4.4 22:24:51 10° NNW 22:30:52 57° W 22:33:38 32° SSW
Helios 1A 4.3 22:37:13 33° NNE 22:37:13 33° NNE 22:39:43 10° N
Terra 3.7 22:40:06 19° NE 22:40:06 19° NE 22:42:07 10° NNE
Cosmos 2297 4.1 22:35:03 10° NNW 22:40:35 55° WSW 22:41:21 51° SW
Cosmos 2369 Rocket 3.5 22:36:29 10° N 22:40:37 27° NE 22:40:37 27° NE
Cosmos 1707 Rocket 4.5 22:42:06 44° WNW 22:42:06 44° WNW 22:46:10 10° N
NOSS 3-4 (A) 4.0 22:37:25 10° NW 22:44:32 66° WSW 22:46:15 52° S
NOSS 3-4 (C) 4.0 22:37:31 10° NW 22:44:39 66° WSW 22:46:20 53° S
Cosmos 614 Rocket 4.2 22:42:45 10° NNW 22:47:28 67° WNW 22:47:28 67° WNW
ERS-1 Rocket 3.2 22:49:53 65° WNW 22:49:53 65° WNW 22:54:21 10° NNW
USA 267 4.2 22:42:54 10° NE 22:46:13 32° ENE 22:46:13 32° ENE
Cosmos 2123 Rocket 4.4 22:43:30 10° N 22:48:49 50° NE 22:48:49 50° NE
ATLAS 5 CENTAUR R/B 3.5 22:53:43 10° NNW 22:58:49 33° NE 22:58:49 33° NE
Cosmos 1535 Rocket 4.5 22:59:33 78° WSW 22:59:46 79° W 23:06:11 10° N
GEOS 3 Rocket 4.3 23:04:07 10° NNE 23:08:07 49° N 23:08:07 49° N
SPOT 5 4.3 23:14:45 32° NNW 23:14:45 32° NNW 23:17:12 10° NNW
SPOT 1/Viking Rocket 4.4 23:16:47 47° NNW 23:16:47 47° NNW 23:20:32 10° NNW
Lacrosse 5 3.5 23:11:38 10° NNW 23:14:48 29° N 23:14:48 29° N
Cosmos 1605 Rocket 4.4 23:19:14 58° NNE 23:19:14 58° NNE 23:24:17 10° N
H-2A R/B 3.6 23:23:56 27° W 23:23:56 27° W 23:27:32 10° NW
ATLAS 2A CENTAUR R/B 3.9 23:07:29 10° WSW 23:22:31 50° SSW 23:22:31 50° SSW
CZ-4C R/B 4.0 23:29:47 10° WSW 23:34:10 27° NW 23:39:04 10° NNE
Cosmos 1943 Rocket 3.5 23:36:57 10° NNW 23:40:03 34° N 23:40:03 34° N
BREEZE-M DEB (TANK) 4.1 23:24:34 10° NW 23:44:19 79° N 23:44:19 79° N
